Regional Weather Roundup
Issued by NWS

Home | Current Version | Previous Version | Graphics & Text | Print | Product List | Glossary On
Versions: 1 2 3 4 5 6 7 8 9 10 11 12 13 14 15 16 17 18 19 20 21 22 23 24 25 26 27 28 29 30 31 32 33 34 35 36 37 38 39 40 41 42 43 44 45 46 47 48 49
000
ASUS43 KDMX 272107
RWRIA

WEATHER ROUNDUP FOR IOWA
NATIONAL WEATHER SERVICE DES MOINES IA
300 PM CST THU NOV 27 2014

NOTE: "FAIR" INDICATES FEW OR NO CLOUDS BELOW 12,000 FEET WITH NO
SIGNIFICANT WEATHER AND/OR OBSTRUCTIONS TO VISIBILITY.

* - THESE STATIONS ARE NOT NWS STATIONS...THUS NOT UNDER NWS
QUALITY CONTROL.  THEY ALSO DO NOT REPORT WEATHER SUCH
AS PRECIPITATION OR FOG.

IAZ001>003-012>014-020>022-031>034-043>046-272200-
   NORTHWEST IOWA

CITY           SKY/WX    TMP DP  RH WIND       PRES   REMARKS
CARROLL *      CLOUDY    10   0  61 SE5       30.40F WCI   2
CHEROKEE *     CLOUDY    10   1  67 SE5       30.37F WCI   2
DENISON *      CLOUDY    14   3  62 E8        30.37F WCI   3
LE MARS *      CLOUDY    12   3  67 SE9       30.36F WCI   0
ORANGE CITY *  PTSUNNY   12   1  62 SE9       30.32F WCI   0
SHELDON *      CLOUDY     9  -2  61 SE12      30.33F WCI  -6
SIOUX CITY     MOSUNNY   18   5  57 SE15      30.35F WCI   4
SPENCER        CLOUDY     7  -2  66 SE8       30.38F WCI  -6
STORM LAKE *   CLOUDY     9   0  66 SE9       30.36F WCI  -5
$$

IAZ055>058-069>071-079>083-090>094-272200-
   SOUTHWEST IOWA

CITY           SKY/WX    TMP DP  RH WIND       PRES   REMARKS
ATLANTIC *     CLOUDY    16   1  53 SE6       30.40F WCI   7
AUDUBON *      MOSUNNY   14   1  57 SE3       30.40F
CLARINDA *     SUNNY     25  12  58 SE7       30.43F WCI  17
COUNCIL BLFS * SUNNY     19   7  58 SE9       30.35F WCI   9
CRESTON *      CLOUDY    16   5  62 SE5       30.40F WCI   9
HARLAN  *      CLOUDY    16   3  57 E8        30.42F WCI   5
LAMONI         CLOUDY    20   9  62 CALM      30.42F
RED OAK *      MOSUNNY   21   9  58 SE8       30.40F WCI  12
SHENANDOAH *   SUNNY     25  12  58 SE9       30.40F WCI  15
$$

IAZ047>049-059>061-072>074-084-272200-
   CENTRAL IOWA

CITY           SKY/WX    TMP DP  RH WIND       PRES   REMARKS
AMES           SUNNY      8  -1  66 SW3       30.45F
ANKENY *       MOSUNNY   10  -2  56 E7        30.46F WCI   0
CHARITON *     CLOUDY    16   1  53 NE5       30.43F WCI   9
DES MOINES     PTSUNNY   13  -2  51 CALM      30.45F
GRINNELL*      MOSUNNY    7   0  72 NW6       30.45F WCI  -3
KNOXVILLE *    SUNNY     12  -2  52 CALM      30.45F
MARSHALLTOWN   SUNNY      7   0  73 NW3       30.44F
PELLA *        MOSUNNY   14  -2  48 N5        30.48F WCI   6
PERRY *        CLOUDY     9   1  72 CALM      30.45S
$$

IAZ004>006-015-016-023>025-035-036-272200-
   NORTH CENTRAL IOWA

CITY           SKY/WX    TMP DP  RH WIND       PRES   REMARKS
ALGONA *       MOSUNNY    1  -6  71 CALM      30.42F
CLARION *      SUNNY      0  -8  71 CALM      30.44F
ESTHERVILLE    SUNNY      1  -5  75 E6        30.39F WCI -10
FORT DODGE *   PTSUNNY    3  -6  66 NE7       30.43F WCI  -9
MASON CITY     SUNNY      4  -3  73 W7        30.44S WCI  -8
FOREST CITY *  SUNNY      1  -4  78 W5        30.42F WCI  -8
IOWA FALLS *     N/A      5   0  78 W8        30.45S WCI  -8
$$

IAZ007>011-017>019-026>030-037>042-050>054-066-272200-
   NORTHEAST IOWA

CITY           SKY/WX    TMP DP  RH WIND       PRES   REMARKS
CEDAR RAPIDS   SUNNY     13   5  70 NW12      30.44R WCI  -1
CHARLES CITY * SUNNY      7  -6  56 NW5       30.44R WCI  -2
CLINTON *      SUNNY     19   5  53 NW12      30.44R WCI   7
DECORAH *      SUNNY     10  -2  56 N8        30.40S WCI  -1
DUBUQUE        SUNNY     16   2  54 W13       30.39R WCI   2
MONTICELLO *   SUNNY     18   3  53 W9G16     30.42S WCI   6
OELWEIN *      SUNNY     10   0  61 NW9       30.43S WCI  -2
WATERLOO       SUNNY      9  -2  61 NW7       30.45F WCI  -2
$$

IAZ064-065-067-068-078-272200-
   EAST CENTRAL IOWA

CITY           SKY/WX    TMP DP  RH WIND       PRES   REMARKS
DAVENPORT      SUNNY     17   6  62 W16       30.43R WCI   2
IOWA CITY      SUNNY     15   4  61 NW10      30.48S WCI   2
MT. PLEASANT * MOSUNNY   16   3  57 W8        30.48R WCI   5
MUSCATINE *    SUNNY     18   7  62 W12G17    30.48R WCI   5
QUAD CITIES    SUNNY     20   4  50 NW15      30.44R WCI   6
$$

IAZ062-063-075>077-085>089-095>099-272200-
   SOUTHEAST IOWA

CITY           SKY/WX    TMP DP  RH WIND       PRES   REMARKS
BURLINGTON     SUNNY     17   4  56 NW7       30.47S WCI   8
FAIRFIELD *    SUNNY     12   0  57 NW10      30.48S WCI  -1
FORT MADISON * SUNNY     18   9  68 NW8       30.48R WCI   7
KEOKUK *       SUNNY     21  10  63 N9        30.47R WCI  11
OSKALOOSA *      N/A     12   1  62 NW7       30.47F WCI   2
CENTERVILLE *  SUNNY     19   9  63 N3        30.45F
OTTUMWA        MOSUNNY   14   1  56 N12       30.46F WCI   0
WASHINGTON *   SUNNY     10   5  79 W12       30.48R WCI  -4
$$

ABBREVIATIONS USED IN REMARKS
   TC - TEMPERATURES IN CELSIUS
  WCI - WIND CHILL INDEX
   HX - HEAT INDEX
  VSB - VISIBILITY
$$



USA.gov is the U.S. government's official web portal to all federal, state and local government web resources and services.